Location: Baia Mare
(47.6567°N, 23.5850°E)
Time: 20:12:26
(UTC+03:00)

ISS - Pass Details

Date: 09 October 2018
Orbit: 403 x 408 km, 51.6° (Epoch: 23 October)

Event Time Altitude Azimuth Distance (km) Brightness Sun altitude
Rises 19:34:55 0° 293° (WNW) 2,340 1.4 -8.4°
Reaches altitude 10° 19:37:01 10° 292° (WNW) 1,476 0.3 -8.8°
Maximum altitude 19:40:19 74° 207° (SSW) 429 -3.7 -9.4°
Enters shadow 19:43:27 11° 122° (ESE) 1,405 -1.6 -9.9°
